Flag for Jersey Weather past 2 weeks in Saint Helier, Jersey

Now
63 °F

Passing clouds.


Feels Like: 63 °F
Forecast: 59 / 66 °F
Wind: 6 mph from North

Location: Dinard Airport

Current Time: Aug 30, 2015 at 2:50:52 AM

Latest Report: Aug 30, 2015 at 2:30 AM


Visibility: N/A

Pressure: 29.98 "Hg

Humidity: 94%

Dew point: 61 °F

Location of Saint HelierLocation

Historic Weather in Saint Helier — Graph

°F

Saint Helier temperature yesterday

Maximum temperature yesterday: 72 °F (at 11:00 AM)
Minimum temperature yesterday: 54 °F (at 12:00 AM)
Average temperature yesterday: 63 °F

Past Weeks' High & Low Weather Summary

 TemperatureHumidityPressure
High81 °F (Aug 22, 11:30 AM)100% (Aug 16, 2:00 AM)30.18 "Hg (Aug 16, 2:00 AM)
Low48 °F (Aug 16, 2:00 AM)47% (Aug 28, 2:30 PM)29.30 "Hg (Aug 24, 6:00 AM)
Average62 °F83%29.94 "Hg
* Reported Aug 15 1:00 AM — Aug 30 1:30 AM, Saint Helier, Weather by CustomWeather, © 2015

Note: Actual official high and low records may vary slightly from our data, if they occured in-between our weather recording intervals... More about our weather records

Advertising

Saint Helier weather history for previous 24 hours

 ConditionsComfort  
Time TempWeatherWind HumidityBarometerVisibility
1:30 AM
Sun, Aug 30
63 °FPassing clouds.5 mph94%30.01 "HgN/A
1:00 AM63 °FPassing clouds.5 mph94%30.01 "HgN/A
12:30 AM63 °FPassing clouds.7 mph94%30.01 "HgN/A
12:00 AM64 °FPassing clouds.7 mph88%30.01 "HgN/A
11:30 PM
Sat, Aug 29
64 °FPassing clouds.3 mph88%30.01 "HgN/A
11:00 PM64 °FPassing clouds.6 mph88%30.01 "HgN/A
10:30 PM64 °FPassing clouds.6 mph88%30.01 "HgN/A
10:00 PM64 °FMostly cloudy.6 mph88%30.01 "HgN/A
9:30 PM64 °FPassing clouds.8 mph88%30.01 "HgN/A
9:00 PM64 °FPassing clouds.9 mph94%30.01 "HgN/A
8:30 PM64 °FBroken clouds.9 mph88%30.01 "HgN/A
8:00 PM64 °FCloudy.9 mph88%30.01 "HgN/A
7:30 PM64 °FSunny.10 mph88%30.01 "Hg10 mi
7:00 PM66 °FBroken clouds.9 mph83%30.01 "HgN/A
6:30 PM68 °FBroken clouds.10 mph78%30.01 "HgN/A
6:00 PM66 °FOvercast.8 mph83%30.01 "HgN/A
5:30 PM66 °FOvercast.7 mph83%30.04 "HgN/A
5:00 PM68 °FOvercast.7 mph83%30.01 "HgN/A
4:30 PM66 °FOvercast.9 mph83%30.01 "HgN/A
4:00 PM68 °FOvercast.7 mph78%30.04 "HgN/A
3:30 PM68 °FOvercast.8 mph78%30.04 "HgN/A
3:00 PM70 °FMostly cloudy.8 mph78%30.04 "HgN/A
2:30 PM70 °FPartly sunny.6 mph78%30.04 "HgN/A
2:00 PM72 °FPartly sunny.8 mph73%30.04 "HgN/A
1:30 PM72 °FMostly cloudy.6 mph78%30.04 "HgN/A
1:00 PM72 °FPartly sunny.5 mph73%30.07 "HgN/A
12:30 PM72 °FPartly sunny.5 mph73%30.07 "HgN/A
12:00 PM72 °FPassing clouds.7 mph73%30.07 "HgN/A
11:00 AM72 °FPassing clouds.6 mph73%30.07 "HgN/A
10:00 AM70 °FSunny.2 mph69%30.09 "Hg10 mi
9:00 AM64 °FSunny.2 mph78%30.09 "Hg10 mi
8:30 AM61 °FSunny.3 mph83%30.09 "Hg10 mi
8:00 AM59 °FSunny.1 mph88%30.09 "Hg10 mi
7:00 AM55 °FClear.No wind94%30.09 "Hg10 mi
6:30 AM54 °FClear.No wind94%30.07 "Hg10 mi
6:00 AM54 °FClear.2 mph94%30.07 "Hg10 mi
5:30 AM55 °FClear.2 mph94%30.07 "Hg10 mi
5:00 AM55 °FClear.2 mph94%30.09 "Hg10 mi
4:00 AM55 °FClear.3 mph94%30.09 "Hg10 mi
3:30 AM54 °FClear.5 mph94%30.09 "Hg10 mi
3:00 AM55 °FPartly cloudy.2 mph88%30.09 "HgN/A
2:30 AM55 °FOvercast.2 mph88%30.09 "HgN/A
2:00 AM55 °FPassing clouds.7 mph88%30.09 "HgN/A
Weather by CustomWeather, © 2015

See weather overviewHow to use our weather pages